Regional Weather Roundup
Issued by NWS Upton, NY

Current Version | Previous Version | Graphics & Text | Print | Product List | Glossary Off
Versions: 1 2 3 4 5 6 7 8 9 10 11 12 13 14 15 16 17 18 19 20 21 22 23 24 25 26 27 28 29 30 31 32 33 34 35 36 37 38 39 40 41 42 43 44 45 46 47 48 49 50

959
ASUS41 KOKX 301004
RWROKX

REGIONAL WEATHER ROUNDUP
NATIONAL WEATHER SERVICE NEW YORK NY
600 AM EDT TUE AUG 30 2016

NOTE: "FAIR" INDICATES FEW OR NO CLOUDS BELOW 12,000 FEET WITH NO
SIGNIFICANT WEATHER AND/OR OBSTRUCTIONS TO VISIBILITY.

NYZ071-072-176-178-NJZ106-104-301100-
NEW YORK CITY METRO AREA

CITY           SKY/WX    TMP DP  RH WIND       PRES   REMARKS
Central Park   PTCLDY    71  57  61 E7        30.18S
LaGuardia APRT PTCLDY    72  60  66 NE13      30.15S
Kennedy INTL   PTCLDY    72  62  71 NE10      30.16R
Newark/Liberty PTCLDY    68  57  68 N9        30.15S
Bronx Bot Gard   N/A     66  54  63 W2        30.15S
Wall St Helipt SUNNY     73  63  68 NE12      30.15S
Teterboro      CLEAR     68  56  65 N5        30.15S
$$

NYZ177-179-078>081-301100-
LONG ISLAND NEW YORK

CITY           SKY/WX    TMP DP  RH WIND       PRES   REMARKS
Farmingdale    CLEAR     68  59  73 NE6       30.16R
MacArthur/ISP  PTCLDY    67  60  78 NE7       30.15S
Shirley        CLEAR     61  57  87 CALM      30.16S
Riverhead      NOT AVBL
Westhampton    CLEAR     62  56  80 NE3       30.17S
Southampton      N/A     64  59  82 NE2       30.12S
Bridgehampton    N/A     64  59  82 CALM      30.15S
East Hampton   FAIR      58  56  92 CALM      30.15S
Montauk          N/A     66  59  78 NE3       30.16S
$$

NYZ052-065-067-301100-
HUDSON VALLEY

CITY           SKY/WX    TMP DP  RH WIND       PRES   REMARKS
White Plains   CLEAR     65  53  65 NE5       30.16S
Newburgh       CLEAR     59  57  94 W6        30.19S
Montgomery     CLEAR     56  55  97 CALM      30.18S
Poughkeepsie   CLEAR     56  54  93 CALM      30.17S
Albany         PTCLDY    54  52  93 CALM      30.19S
$$

NJZ001-105-106-008-010-013-015-019>022-104-301100-
NEW JERSEY

CITY           SKY/WX    TMP DP  RH WIND       PRES   REMARKS
Newark/Liberty PTCLDY    68  57  68 N9        30.15S
Teterboro      CLEAR     68  56  65 N5        30.15S
Caldwell       CLEAR     64  59  83 CALM      30.17S
Morristown     CLEAR     55  55 100 CALM      30.17S FOG
Somerville     CLEAR     61  57  87 N5        30.14S
Linden         FAIR      71  55  58 CALM      30.17R
Sussex         CLEAR     55  55 100 CALM      30.19S
Abdover          N/A     57  56  96 CALM      30.18F
Trenton        CLEAR     67  58  72 N5        30.14S
Millville      CLEAR     70  62  76 NE7       30.12R
Atlantic City  CLEAR     67  61  81 N5        30.12R
Wrightstown    CLEAR     63  59  86 N1        30.12R
Toms River     PTCLDY    64  60  87 N3        30.14R
Belmar         CLEAR     70  63  78 NE6       30.15R
$$

PAZ047>061-062-071-301100-
EASTERN PENNSYLVANIA

CITY           SKY/WX    TMP DP  RH WIND       PRES   REMARKS
Philadelphia   PTCLDY    71  58  63 NE7       30.14S
Allentown      CLEAR     59  56  89 N3        30.18R
Scranton       CLEAR     57  54  89 SE6       30.20R
$$

CTZ002-004>006-009-010-012-RIZ004-006-007-MAZ004-011-015-301100-
SOUTHERN NEW ENGLAND
 IN CT

CITY           SKY/WX    TMP DP  RH WIND       PRES   REMARKS
Bradley INTL   PTCLDY    57  53  86 CALM      30.18S
Hartford       CLEAR     61  56  83 N5        30.17S
Danbury        CLEAR     56  53  90 SW3       30.19R
Wtrbury/Oxford   N/A     61  50  67 CALM      30.19R
Bridgeport     PTCLDY    66  56  70 N5        30.16S
Meriden        CLEAR     58  54  86 CALM      30.17S
New Haven      PTCLDY    60  54  80 N5        30.17R
Chester        FAIR      61  55  82 N5        30.17S
Groton         CLEAR     62  56  80 N7        30.15S
Wilimantic     CLEAR     56  54  93 CALM      30.18S

 IN RI

CITY           SKY/WX    TMP DP  RH WIND       PRES   REMARKS
Providence     PTCLDY    62  53  72 N5        30.16S
Block Island   CLEAR     64  60  87 N5        30.16S
Westerly       CLEAR     58  53  84 CALM      30.17R
 IN MA

CITY           SKY/WX    TMP DP  RH WIND       PRES   REMARKS
Boston         PTCLDY    64  55  72 W3        30.16S
Worcester      CLEAR     61  50  67 CALM      30.18S
Westfield      CLEAR     53  52  96 CALM      30.18S
Provincetown   CLEAR     64  61  90 N5        30.16R
Nantucket      CLEAR     59  57  93 N6        30.14R
$$

ANZ330-335-338-340-345-350-353-355-301100-
COASTAL MARINE OBSERVATIONS


STATION/POSITION TIME  SKY/WX   TEMP    WIND        PRES    VSBY  WAVE
                                AIR SEA DIR/SP/G                  HT/PER
                 (UTC)          (F)     (DEG/KT/KT) (MB)    (MI)  (FT/S)
NY HARB ENTRANCE 0850            75 77   50/ 16/ 17 1019.8          4/11
20S FIRE ISLAND  0850            76 75   80/ 16/ 19 1019.5          4/11
GREAT SOUTH BAY  0900            71 79   30/ 10/ 12   N/A
23 SSW MONTAUK P 0850            73 75   70/ 14/ 17 1020.7          5/12
15 E BARNEGAT LI 0900               77                N/A           4/13
HUDSON CANYON    0950            76 78              1018.9          5/11
KINGS POINT      0900            71 76              1020.9
EXECUTION ROCKS  0900            72      50/ 14/ 17   N/A
CENTRAL LI SOUND 0900            70 76   40/ 12/ 14   N/A           1/ 3
EASTERN LI SOUND 0900            66 70   30/ 10/ 14   N/A
ROBBINS REEF     0900            73      50/ 13/ 14 1020.0
$$


>>>>>>>>>>>>>>>>>>>>>>>>>>>> KEY <<<<<<<<<<<<<<<<<<<<<<<<<<<
>                                                          <
>     SKY/WX - Sky Condition/Present Weather               <
>     TMP    - Temperature in Fahrenheit                   <
>     DP     - Dew Point in Fahrenheit                     <
>     RH     - Relative Humidity in Percent                <
>     WIND   - Direction (from) and Speed in MPH           <
>     PRES   - Mean Sea Level Pressure (inches of Hg)      <
>     WCI    - Wind Chill Index                            <
>     VSB    - VISIBILITY IN MILES                         <
>     HX     - HEAT INDEX                                  <
>     TC     - TEMPERATURE IN CELSIUS                      <
>     VRB    - VARIABLE WIND DIRECTION                     <
>                                                          <
>>>>>>>>>>>>>>>>>>>>>>>>>>>> KEY <<<<<<<<<<<<<<<<<<<<<<<<<<<




USA.gov is the U.S. government's official web portal to all federal, state and local government web resources and services.